Zurück zum Katalog

FENGYUN 1C DEB

AktivSSO
NORAD 30252·DEBRIS·🇨🇳 China

Gestartet May 10, 1999 von Taiyuan Satellite Launch Center

Loading…

Nächste Überflüge (nächste 24 Stunden)

TLE

AktuellSource: Space-Track

Epoche: Sep 14, 2026, 06:21 UTC

1 30252U 99025XM  26257.26496851  .00000486  00000-0  29333-3 0  9991
2 30252  98.7346 269.3888 0066357 180.8001 239.7183 14.10095153  8460

Verfolge FENGYUN 1C DEB in Echtzeit mit AllMySat

Download on the App Store